User: anonymous   Login
Location: Harrison
(47.4490°N, 116.7734°W)
Time: 07:02:33
(UTC+00:00)
Language:

CAS-4B - Orbit

View from above orbital plane
View from above orbital plane
View from above satellite
View from above satellite

Ground track
Ground track

The orbit data is extracted from the following two-line orbital elements,

1 42759U 17034B   24255.92751571  .00040941  00000-0  12596-2 0  9990
2 42759  43.0153  94.8638 0012935 220.3600 139.6295 15.32911761400696
Epoch (UTC): 11 September 2024 22:15:37
Eccentricity: 0.0012935
inclination: 43.0153°
perigee height: 458 km
apogee height: 476 km
right ascension of ascending node: 94.8638°
argument of perigee: 220.3600°
revolutions per day: 15.32911761
mean anomaly at epoch: 139.6295°
orbit number at epoch: 40069

The dashed part of the orbit path shows where the satellite is in the earth's shadow,  

DLR